EHI
3 3 3 2 1 0 0 0 0 0 0 0 0 0 0 0 0 0 0 0 0 0 0 0 0 1 2 2 1 0 0 0 0 0 0 0 0 0 0 0 0 0 0 0 0 0 1 1 1
1 1 1 1 0 0 0 0 0 0 0 0 0 0 0 0 0 0 0 0 0 0 0 0 0 1 1 1 0 0 0 0 0 0 0 0 0 0 0 0 0 0 0 0 0 0 0 0 0
1 1 1 0 0 0 0 0 0 0 0 0 0 0 0 0 0 0 0 0 0 0 0 0 0 0 0 0 0 0 0 0 0 0 0 0 0 0 0 0 0 0 0 0 0 0 0 0 0
2 1 1 0 0 0 0 0 0 0 0 0 0 0 0 0 2 3 2 1 0 0 0 0 0 0 0 0 0 0 0 0 0 0 0 0 0 0 0 0 0 0 0 0 0 0 0 0 0
1 1 0 0 0 0 0 0 0 0 1 1 1 0 1 3 7 7 5 2 1 0 0 0 0 0 0 0 0 0 0 0 0 0 0 0 0 0 0 0 0 0 0 0 0 0 0 0 0
0 0 0 0 0 0 0 0 0 0 1 2 2 1 2 7 12 10 5 2 1 0 0 0 0 0 0 0 0 0 0 0 0 0 0 0 0 0 0 0 0 0 0 0 0 0 0 0 1
1 0 0 0 0 0 1 1 0 1 1 2 2 1 3 10 14 11 5 1 0 0 0 0 0 0 0 0 0 0 0 0 0 0 0 0 0 0 0 0 0 0 0 0 0 0 0 2 4
1 0 0 0 0 0 0 1 1 1 1 1 1 0 4 10 14 13 7 2 0 0 0 0 0 0 0 0 0 0 0 0 0 0 0 0 0 0 0 0 0 0 0 0 0 1 3 5 6
1 0 0 0 0 0 0 1 1 1 0 0 1 2 6 11 15 14 10 5 2 0 0 1 0 0 0 0 0 0 0 0 0 1 1 1 0 0 0 0 1 2 2 1 2 4 6 6 5
0 0 0 0 0 0 1 3 2 0 0 1 4 6 9 13 16 15 13 9 4 1 0 1 1 0 0 0 0 0 0 0 0 1 2 1 1 1 1 1 2 4 4 3 3 4 4 3 2
0 0 0 0 0 1 2 3 2 0 0 2 5 8 11 15 17 16 14 11 7 4 2 1 1 1 0 0 0 0 0 0 0 1 2 3 2 2 1 1 2 4 4 3 2 2 2 1 0
0 0 0 0 0 1 2 3 2 2 2 2 3 5 10 14 16 16 14 12 9 7 5 3 2 1 1 1 1 1 0 0 1 2 2 3 3 3 2 1 1 2 3 2 1 1 1 0 0
0 0 0 0 0 1 2 3 3 4 4 3 3 5 8 11 14 16 16 14 11 9 7 4 2 1 2 3 3 2 1 1 1 1 1 2 2 3 2 1 1 1 1 2 1 1 0 0 0
0 0 0 1 2 2 3 4 5 6 5 3 4 6 9 12 16 19 20 17 13 10 8 4 2 1 2 3 3 2 1 1 1 0 0 1 2 2 2 1 0 0 0 1 1 0 0 0 0
0 0 0 1 2 1 1 2 5 7 6 4 5 9 13 16 22 24 22 19 16 13 9 6 3 1 1 1 1 0 1 1 1 1 1 2 2 2 1 0 0 0 0 0 0 0 0 0 0
0 0 0 0 1 0 0 1 4 9 9 5 7 13 17 20 25 28 23 18 18 16 11 7 5 2 1 0 0 0 0 1 2 2 2 3 4 3 1 0 0 0 0 0 0 0 0 0 0
0 0 0 0 0 0 0 2 6 9 9 7 9 16 21 25 30 30 24 19 20 18 11 8 7 4 1 0 0 0 0 1 2 4 4 5 6 5 2 1 1 1 0 0 0 0 0 0 0
0 0 0 0 0 0 0 3 6 8 9 8 10 15 22 31 35 33 27 24 24 21 15 12 11 7 3 1 1 1 1 1 2 5 6 6 7 5 2 1 1 1 0 0 0 0 0 0 0
0 0 0 0 0 0 1 3 6 7 8 9 11 14 22 32 37 36 35 34 32 29 26 23 19 12 6 3 3 3 2 2 3 5 6 5 5 4 3 2 1 0 0 0 0 0 0 0 0
0 0 0 0 0 1 2 4 6 8 9 11 14 16 23 33 40 43 47 48 44 41 39 35 28 18 9 6 5 4 2 1 2 3 3 3 3 4 4 3 2 1 1 1 0 0 0 0 0
0 0 0 0 0 1 2 3 5 8 12 14 18 22 27 36 45 51 55 56 53 49 46 41 35 26 15 9 7 6 4 4 4 4 2 2 3 4 4 3 3 3 2 2 1 0 0 0 0
0 0 0 0 0 1 1 1 3 7 12 17 21 25 29 36 47 55 58 56 54 51 46 42 38 33 23 15 12 10 8 8 8 6 2 2 3 4 4 4 4 3 3 3 2 1 0 0 0
0 0 0 0 0 0 0 0 1 5 11 17 22 26 30 36 46 56 58 53 50 48 46 42 40 36 30 25 20 15 12 10 9 7 5 3 2 4 5 5 5 4 3 3 3 2 1 0 0
0 0 0 0 0 0 0 0 1 3 10 16 21 26 30 36 44 52 54 52 50 49 47 44 42 40 37 31 25 20 15 11 10 9 8 6 4 3 5 6 5 4 3 3 3 3 1 1 0
0 0 0 0 0 0 0 0 1 4 11 17 20 24 30 36 42 48 53 54 53 53 51 47 44 43 40 36 30 24 19 16 13 11 12 11 8 5 4 5 5 4 4 4 4 4 3 2 1
0 0 0 0 0 0 0 1 3 8 14 19 20 21 27 35 41 47 53 56 56 55 53 49 45 43 43 42 37 30 25 22 18 14 14 14 11 8 6 4 5 5 5 5 5 5 5 4 3
0 0 0 0 0 0 0 1 6 11 16 20 21 20 24 32 39 43 48 52 54 54 52 49 45 42 44 44 41 36 31 28 23 18 15 14 13 10 8 6 6 6 6 7 7 7 7 5 4
0 0 0 0 0 0 0 1 4 10 16 22 23 21 22 28 35 38 42 49 53 54 53 51 47 44 44 43 41 38 34 30 25 20 16 13 13 12 10 9 8 7 7 9 10 9 7 5 2
0 0 0 0 0 0 0 0 3 8 14 21 25 23 21 25 31 36 42 50 54 54 54 54 50 46 43 41 40 38 34 31 26 20 15 12 11 10 10 10 10 10 10 11 12 10 7 4 2
0 0 0 0 0 0 0 0 2 8 14 21 26 24 21 23 29 36 44 50 54 53 53 53 50 45 41 40 40 38 35 33 28 21 15 12 10 8 9 11 11 11 12 13 13 10 6 4 2
Wind_Speed
4 4 2 1 5 6 8 7 10 10 9 10 12 12 11 9 7 8 3 9 11 8 6 10 13 15 15 15 15 15 15 16 16 17 17 17 17 17 17 17 17 17 16 16 16 16 15 15 15
3 3 1 4 7 7 7 9 14 14 13 14 14 15 12 10 9 10 5 9 11 9 6 9 14 14 15 15 15 15 15 15 15 16 16 16 17 17 17 16 16 16 16 15 15 14 14 14 14
3 2 3 4 5 7 8 11 15 15 12 10 9 8 7 7 9 7 8 12 10 8 6 9 15 14 14 14 14 14 15 15 15 15 15 15 16 16 16 15 15 15 14 14 13 13 13 12 12
2 3 4 6 8 8 12 13 16 15 12 10 10 9 6 7 7 11 14 13 11 7 6 9 15 14 14 14 13 14 14 14 14 15 14 15 15 15 15 14 14 14 13 13 12 11 11 10 10
3 4 6 6 9 10 13 14 13 12 9 11 12 11 7 7 16 17 15 13 11 7 5 8 14 14 14 13 13 13 13 14 14 14 14 14 14 14 13 13 13 12 12 11 10 9 9 8 8
4 5 6 7 10 10 11 15 17 18 17 14 13 11 6 10 16 15 14 12 11 9 6 7 13 14 13 13 13 12 13 13 13 13 13 13 13 13 12 11 11 11 10 9 9 8 7 6 6
4 5 5 8 11 10 10 12 15 15 14 9 10 8 6 8 12 14 13 11 10 9 7 5 6 9 12 13 12 12 12 12 12 12 12 12 12 11 11 10 10 10 9 8 7 6 5 5 4
5 6 6 6 10 9 10 10 13 15 11 13 8 8 8 9 13 13 12 10 9 7 7 6 5 5 5 6 11 11 11 11 11 11 11 10 10 9 9 8 8 8 7 6 5 4 3 3 2
5 7 5 6 8 8 13 15 10 10 12 7 6 9 13 15 15 14 11 8 7 7 5 5 5 4 4 4 8 8 10 9 9 7 9 7 3 3 4 6 7 7 6 5 4 2 1 0 0
6 6 8 7 9 11 15 16 10 9 12 11 13 13 14 14 14 13 12 10 9 8 6 5 5 4 4 5 4 2 3 3 3 2 3 2 2 2 3 4 6 6 5 4 3 2 2 1 1
6 7 7 8 10 12 13 11 8 12 10 15 18 17 14 13 11 11 11 10 10 9 8 6 6 5 4 3 3 2 1 2 2 3 3 2 2 1 1 1 1 1 2 1 1 1 2 1 1
6 6 8 8 10 12 11 10 9 8 11 15 16 16 14 12 11 11 10 9 9 9 8 7 7 6 5 4 3 3 2 2 2 3 4 3 2 2 2 1 1 1 1 1 1 1 2 2 2
6 5 7 10 12 13 13 11 11 9 13 14 14 14 13 12 10 8 10 9 9 8 7 7 6 6 5 4 3 4 3 3 3 3 3 4 3 3 3 2 2 2 2 2 2 1 2 2 2
4 6 7 11 13 12 16 11 10 11 14 14 13 11 11 11 11 10 9 8 8 9 8 7 6 6 5 3 3 3 3 3 2 2 3 4 3 3 3 2 2 2 2 2 2 2 1 1 0
4 7 5 5 9 9 13 8 10 15 15 14 13 11 10 10 11 12 11 10 9 9 8 7 7 5 5 4 4 3 3 3 2 2 2 3 3 3 3 2 1 1 1 1 1 1 0 0 0
5 5 3 1 6 7 11 7 10 14 15 13 12 12 10 9 11 12 11 10 9 9 8 7 7 6 4 3 3 2 3 3 3 2 2 3 3 3 3 2 2 2 1 1 1 0 0 0 0
4 2 3 1 2 5 7 7 10 11 13 12 11 11 10 9 9 10 11 11 10 10 8 7 6 6 4 3 2 2 2 3 3 2 2 3 3 3 3 2 2 1 1 1 1 1 1 1 1
2 2 3 4 3 5 6 7 12 12 12 12 11 10 11 11 11 11 11 10 10 9 8 7 6 5 4 2 1 1 1 1 2 2 3 3 3 3 3 2 2 2 1 1 1 1 1 1 1
4 2 3 4 4 5 7 9 12 11 10 10 9 10 11 11 10 11 11 10 9 8 8 8 7 5 4 2 2 2 2 2 1 2 4 4 4 3 3 2 1 1 1 2 1 1 0 1 1
3 3 2 1 3 6 7 6 8 11 13 13 13 12 12 10 9 10 10 10 10 9 8 8 8 6 5 3 3 2 2 2 2 2 3 4 4 3 3 3 2 2 1 1 1 1 1 1 1
2 5 5 4 1 3 7 2 3 5 6 8 11 12 12 15 15 13 12 10 10 10 9 8 8 6 5 4 2 1 1 1 0 1 1 2 3 3 3 3 3 3 3 2 2 2 2 1 1
3 4 6 6 5 1 4 3 5 5 5 8 9 11 13 13 13 13 13 12 12 11 9 8 8 7 5 4 3 3 2 2 2 2 2 1 1 2 3 3 3 3 2 2 3 2 2 2 2
4 2 4 5 5 2 1 4 6 3 6 9 11 12 13 13 14 15 14 14 11 10 8 7 7 6 5 4 4 3 2 2 1 1 1 1 1 1 2 3 3 3 2 3 2 2 2 2 2
2 5 6 6 5 0 4 5 6 7 12 11 11 12 13 13 14 13 11 10 9 9 8 7 7 6 6 5 4 4 3 2 1 1 1 1 1 1 2 2 3 3 3 3 3 2 2 2 2
5 7 5 5 4 5 4 3 9 9 12 14 14 14 13 13 13 12 12 11 10 10 9 8 7 6 6 6 5 4 4 3 3 3 3 2 1 1 2 2 2 2 2 2 2 2 1 1 2
3 10 8 5 4 4 2 3 7 6 8 9 10 11 12 12 12 13 13 12 12 11 10 8 7 6 7 6 5 4 4 3 2 3 2 3 2 2 2 2 1 1 1 2 2 1 1 1 1
4 4 9 8 2 1 3 3 5 2 5 5 8 9 10 12 12 12 12 11 10 10 10 9 7 6 6 6 5 3 3 3 3 2 2 2 1 1 1 2 2 1 1 1 1 1 1 1 1
7 7 6 6 4 1 3 2 4 4 5 6 7 9 9 10 10 10 10 9 8 8 8 8 8 8 7 6 5 4 3 3 2 2 1 1 1 1 2 2 2 1 1 1 1 1 1 1 0
3 3 6 5 6 7 2 6 7 9 8 8 8 9 10 11 11 10 9 9 9 8 8 8 8 7 6 6 5 4 3 2 2 2 1 1 2 2 2 2 2 2 1 1 1 1 1 1 1
7 7 8 6 3 5 4 8 6 6 6 8 9 8 8 8 8 9 9 9 8 8 8 7 7 7 6 5 4 4 3 3 3 2 2 2 2 2 2 3 3 2 2 2 2 1 1 1 1
Wind_Direction
202 188 167 81 56 66 83 86 92 80 64 64 75 79 76 64 88 117 151 127 125 118 111 106 104 101 99 98 96 95 95 95 95 96 96 97 97 97 97 98 98 99 99 98 99 99 100 101 102
189 179 112 57 81 85 82 95 90 93 112 104 84 81 76 73 88 113 123 126 125 120 114 112 108 105 102 100 99 98 98 98 98 98 99 99 100 100 99 99 99 100 100 99 99 100 100 100 101
191 178 88 72 93 111 111 107 106 105 104 95 90 68 69 96 109 121 132 126 116 111 112 117 111 108 105 103 101 100 100 99 99 99 100 102 102 101 100 99 100 101 102 102 102 102 102 102 102
125 64 54 84 103 114 118 119 117 108 85 79 91 76 69 98 107 127 130 123 116 113 117 120 115 113 111 109 106 104 104 103 102 101 101 102 103 102 101 101 102 103 104 104 104 103 102 102 101
74 73 69 82 94 101 114 117 111 99 87 91 94 98 87 92 115 128 130 128 126 121 120 120 119 117 115 113 112 110 108 107 106 105 104 104 105 105 105 105 105 106 106 106 105 103 101 100 96
63 72 81 96 103 103 110 111 103 99 106 105 103 103 98 124 127 134 134 133 133 132 126 124 125 123 120 118 115 115 113 112 111 109 109 110 109 110 110 110 110 111 111 110 107 105 102 96 92
113 100 108 113 111 113 121 118 115 121 122 120 120 102 113 132 136 136 134 133 133 133 129 123 128 127 126 125 123 122 120 118 117 116 115 115 115 115 115 115 116 117 117 117 114 110 104 94 87
139 102 92 102 113 120 128 115 125 127 117 130 125 120 144 149 136 132 129 129 131 133 133 131 130 127 128 129 132 130 128 125 124 125 123 122 121 120 121 120 125 126 126 127 125 122 113 96 86
104 89 121 142 127 127 120 109 112 109 121 126 105 127 143 139 132 130 128 128 138 140 143 144 141 139 140 143 142 137 135 135 133 133 134 125 109 110 119 134 138 138 139 142 150 157 170 187 68
105 125 173 164 140 133 125 121 121 112 109 105 109 122 135 136 136 139 145 150 154 154 157 155 151 160 163 156 135 136 141 140 136 137 136 129 139 152 147 152 153 155 159 163 187 225 263 299 356
118 143 155 136 133 127 124 122 111 122 128 141 142 146 147 144 145 147 152 155 157 158 159 161 164 168 173 156 151 159 160 153 159 165 161 154 147 147 136 132 164 183 192 223 256 278 289 291 289
99 122 128 133 130 124 126 121 110 124 147 150 147 149 149 153 156 154 152 152 147 148 155 159 160 162 171 161 165 172 172 171 174 175 164 153 150 154 165 168 192 222 227 230 255 280 279 278 270
94 113 114 119 118 121 116 118 115 124 137 141 144 147 152 157 156 155 151 147 146 146 151 155 151 153 158 154 171 169 173 177 179 174 169 163 160 167 173 183 192 206 213 207 217 247 263 259 259
129 113 114 119 116 118 118 117 110 138 143 149 154 157 160 160 153 150 151 149 152 154 156 156 153 155 151 150 154 157 165 168 161 169 170 162 162 162 164 174 191 210 211 204 206 215 231 253 270
94 94 80 113 116 127 112 100 135 151 153 157 163 165 165 162 155 159 162 158 158 158 156 156 158 158 154 152 156 148 156 155 158 172 164 162 167 162 157 158 169 209 221 215 198 225 279 273 277
56 76 100 237 131 143 114 141 163 159 158 162 168 169 166 165 164 165 162 159 158 156 154 162 163 161 163 157 148 144 152 159 172 175 170 177 179 167 156 158 186 202 183 166 163 129 4 327 301
34 114 149 221 177 141 116 148 164 169 165 167 172 171 165 160 160 164 165 163 160 161 161 165 160 163 168 164 154 152 160 172 178 172 180 192 192 179 165 178 199 194 160 171 215 151 173 204 253
224 168 163 191 205 140 123 149 161 173 172 174 175 170 166 165 168 167 167 162 159 163 163 163 162 168 165 156 135 123 158 191 188 185 199 197 194 183 172 190 207 175 144 168 205 194 194 197 221
178 153 180 205 180 131 132 146 166 175 174 174 178 176 172 172 167 164 163 159 158 162 164 167 167 174 165 156 159 163 196 213 214 207 206 202 197 187 179 189 191 174 166 191 199 189 198 240 133
182 168 222 330 155 138 136 153 177 180 185 181 180 181 176 164 161 165 165 163 165 169 170 167 171 175 178 178 176 181 186 208 208 216 215 209 201 195 191 185 190 191 183 206 208 172 158 251 136
235 182 186 177 101 78 104 54 212 195 185 187 181 178 175 174 173 173 173 173 171 174 175 172 173 175 183 180 159 155 85 6 342 248 232 230 209 198 194 189 186 187 181 205 216 194 170 210 257
244 217 166 152 121 205 139 169 252 202 199 196 187 180 181 179 175 176 177 178 180 181 176 168 170 173 178 170 163 167 175 201 220 212 213 241 206 195 197 197 193 194 195 204 216 204 189 178 228
218 209 145 148 136 87 53 136 260 197 207 210 196 189 186 180 178 181 184 184 181 176 173 171 169 174 175 173 173 174 192 210 216 189 197 218 226 222 211 201 196 198 204 210 213 202 198 190 202
147 43 37 58 78 83 224 155 244 210 205 201 196 192 187 182 181 182 182 174 173 171 171 171 175 180 178 177 176 181 193 196 171 187 208 234 241 239 231 209 203 204 206 209 212 207 199 198 190
82 80 36 9 20 248 238 162 236 224 198 191 187 190 187 182 179 178 178 177 176 174 175 177 178 184 182 181 187 189 190 180 183 193 198 214 229 234 232 212 200 202 202 197 189 184 191 181 171
152 134 152 181 208 273 327 219 254 226 187 179 179 181 177 177 181 182 183 181 178 174 173 174 180 187 183 185 194 187 181 181 196 199 195 206 214 219 218 186 177 190 195 195 175 179 198 162 181
145 164 165 139 159 69 292 296 328 83 133 156 161 159 171 177 178 179 178 175 171 166 169 173 178 185 182 185 183 184 182 179 188 195 185 186 194 178 135 136 136 140 143 163 152 157 186 148 170
159 154 95 110 138 207 300 270 223 204 172 174 166 163 169 172 172 172 173 171 167 162 159 157 175 180 176 179 181 180 183 188 190 174 172 151 132 103 95 95 100 97 95 99 109 126 154 124 146
153 125 115 123 147 147 204 266 226 198 182 169 172 167 168 168 168 163 161 163 157 150 151 154 163 164 168 171 168 165 165 170 157 134 123 114 106 107 100 109 108 97 90 85 93 87 95 120 112
167 173 145 147 204 152 156 261 262 178 168 158 161 162 159 155 154 151 152 150 149 150 151 154 159 161 164 163 154 154 142 135 131 123 117 113 108 105 109 100 96 91 80 68 73 72 56 79 73